CAPE
15 12 7 11 6 5 2 0 16 21 23 18 15 22 23 17 7 4 6 9 8 7 0 0 0 1 0 0 0 0 0 0 0 0 0 0 0 0 0 0 0 0 0 0 0 0 43
18 11 9 0 0 1 2 0 19 32 38 44 29 22 17 16 17 11 11 4 0 1 0 0 0 14 0 0 0 0 0 0 0 0 0 0 0 0 0 0 0 0 0 0 0 0 107
17 21 18 18 16 12 7 13 10 39 46 50 48 46 23 15 19 10 5 3 0 0 0 0 0 16 3 0 0 0 0 0 0 0 0 0 0 0 0 0 0 0 0 0 0 0 0
20 23 26 31 39 32 33 26 44 10 21 49 49 38 31 15 9 6 0 0 0 0 0 0 0 6 1 0 0 0 0 0 0 0 0 0 0 0 0 0 0 0 0 0 0 0 0
21 27 25 39 46 47 40 45 53 57 62 64 55 38 29 29 9 1 0 0 0 0 0 0 1 1 0 0 0 0 0 0 0 0 0 0 0 0 0 0 0 0 0 0 0 0 0
31 29 33 41 52 57 66 60 52 52 60 63 58 49 42 37 13 0 0 0 0 0 0 0 3 0 0 0 0 0 0 0 0 0 0 0 0 0 0 0 0 0 0 0 0 1 4
36 36 31 30 45 37 37 51 67 63 60 57 65 51 42 41 10 0 0 0 0 0 0 0 0 0 0 0 0 0 0 0 0 0 0 0 0 0 0 0 0 0 0 0 0 0 27
23 31 34 35 33 47 47 54 58 57 57 63 61 63 52 38 0 0 0 0 0 0 0 0 0 0 0 0 0 0 0 0 0 0 0 0 0 0 0 0 0 0 0 0 0 1 14
28 34 31 35 39 42 49 64 58 57 64 64 66 62 55 25 0 0 0 0 0 0 0 0 0 0 0 0 0 0 0 0 0 0 0 0 0 0 0 0 0 0 0 0 0 0 0
41 64 38 28 37 46 50 47 65 59 58 65 65 48 35 2 0 0 0 0 0 0 0 0 0 0 0 0 0 0 0 0 0 0 0 0 0 0 0 0 0 0 0 0 0 0 0
44 59 35 30 37 58 65 68 67 68 60 60 58 60 40 14 0 0 0 0 0 0 0 0 0 0 0 0 0 0 0 0 0 0 0 0 0 0 0 0 0 0 0 0 0 0 0
39 36 26 29 46 57 60 63 65 68 61 54 53 59 65 0 0 0 0 0 2 1 0 0 0 0 0 0 0 0 0 0 0 0 0 0 0 0 0 0 0 0 0 0 0 0 0
44 31 26 42 44 56 72 74 54 64 67 59 50 54 51 0 0 0 0 0 49 1 0 0 0 0 0 0 0 0 0 0 0 0 0 0 0 0 0 0 0 0 0 0 0 0 0
38 28 30 48 57 72 68 64 58 74 64 52 47 42 39 0 0 0 0 16 13 0 0 0 0 0 0 0 0 0 0 0 0 0 0 0 0 0 0 0 0 0 0 0 0 0 0
24 28 45 60 55 75 75 75 86 78 60 46 42 24 16 0 0 13 7 6 0 0 0 0 0 0 0 0 0 0 0 0 0 0 0 0 0 0 0 0 0 0 0 0 0 0 0
24 31 47 55 62 79 81 71 82 81 70 49 38 29 8 0 0 31 12 1 0 0 0 0 0 0 0 0 0 0 0 0 0 0 0 0 0 0 0 0 0 0 0 0 0 0 0
38 42 55 57 62 68 69 87 88 90 78 58 48 27 13 0 16 39 2 2 0 0 0 0 0 0 0 0 0 0 0 0 0 0 0 0 0 0 0 0 0 0 0 0 0 0 0
58 56 57 70 74 69 82 84 80 81 84 64 48 3 3 3 16 13 5 1 0 0 0 0 0 0 0 0 0 0 0 0 1 0 0 0 0 0 0 0 0 0 0 0 0 0 0
65 64 62 71 70 84 79 81 86 85 100 66 23 11 3 0 2 1 3 1 0 2 0 0 0 0 0 0 0 0 5 58 16 10 0 0 1 0 0 0 0 0 0 0 0 0 0
66 61 73 79 91 88 85 83 81 88 104 55 9 1 21 7 0 0 0 0 4 5 0 0 0 0 0 0 0 0 0 26 21 45 24 34 6 4 0 0 0 0 0 0 0 0 0
63 69 73 83 86 88 85 84 85 89 95 72 3 0 0 2 9 6 2 2 1 2 10 0 0 0 0 0 0 0 0 37 106 7 27 49 18 0 0 0 0 0 0 0 0 0 0
63 73 77 80 86 85 84 78 80 83 94 72 0 0 4 0 4 16 13 0 0 0 4 0 0 0 0 0 0 0 0 0 41 38 56 2 2 0 0 0 0 0 0 0 0 0 0
78 84 83 77 85 97 100 93 87 91 76 27 18 0 4 3 9 8 2 0 3 0 1 0 0 0 0 0 0 4 29 7 17 18 0 2 0 2 0 0 0 0 0 0 0 0 0
84 81 94 103 112 103 84 75 57 63 81 43 7 7 4 2 2 1 0 6 0 10 0 0 0 0 0 0 14 8 19 88 77 26 0 0 0 2 0 0 0 0 0 0 0 0 0
74 99 119 106 107 98 80 69 52 58 61 23 11 16 8 0 0 0 0 0 1 0 2 0 0 0 0 0 5 14 0 0 0 26 15 2 0 0 0 1 0 0 0 0 0 0 0
82 85 78 74 81 77 65 61 64 53 67 40 10 4 21 6 3 0 0 0 0 0 0 0 0 0 0 0 19 0 4 1 10 12 61 0 0 0 0 1 36 0 0 0 0 0 0
60 61 70 76 75 76 75 72 65 68 80 52 33 0 1 2 0 0 0 0 0 0 0 0 0 0 0 0 0 0 0 13 11 1 1 0 0 0 0 0 0 2 0 0 0 0 0
29 34 46 62 72 75 66 73 80 78 88 74 27 2 2 5 0 12 0 0 0 0 0 0 0 1 11 5 0 0 1 6 14 0 0 0 0 0 3 1 1 0 0 0 0 0 0
41 45 39 43 54 48 63 60 72 78 85 97 34 6 46 23 13 4 0 0 0 0 0 0 0 0 6 3 0 0 17 2 0 4 0 0 0 0 0 0 13 0 0 0 0 0 0
CIN
-0 -0 -0 -0 -0 -0 -0 -0 -0 -0 -0 -2 -4 -4 -2 -0 -0 -0 -0 -1 -0 -0 -0 -0 -0 -0 -0 -0 -0 -0 -0 -0 -0 -0 -0 -0 -0 -0 -0 -0 -0 -0 -0 -0 -0 -0 -187
-0 -0 -0 -0 -0 -0 -0 -0 -0 -0 -0 -0 -0 -2 -5 -5 -2 -1 -1 -5 -0 -0 -0 -0 -0 -0 -0 -0 -0 -0 -0 -0 -0 -0 -0 -0 -0 -0 -0 -0 -0 -0 -0 -0 -0 -0 -186
-0 -0 -0 -0 -2 -1 -2 -1 -1 -0 -0 -0 -0 -0 -1 -4 -5 -9 -7 -6 -0 -0 -0 -0 -0 -0 -0 -0 -0 -0 -0 -0 -0 -0 -0 -0 -0 -0 -0 -0 -0 -0 -0 -0 -0 -0 -0
-0 -0 -0 -0 -0 -1 -2 -1 -1 -3 -0 -0 -0 -0 -1 -2 -6 -10 -1 -0 -0 -0 -0 -0 -0 -0 -0 -0 -0 -0 -0 -0 -0 -0 -0 -0 -0 -0 -0 -0 -0 -0 -0 -0 -0 -0 -0
-0 -0 -0 -0 -0 -0 -1 -1 -1 -0 -0 -0 -0 -2 -2 -2 -4 -10 -0 -0 -0 -0 -0 -0 -0 -0 -0 -0 -0 -0 -0 -0 -0 -0 -0 -0 -0 -0 -0 -0 -0 -0 -0 -0 -0 -0 -0
-0 -0 -0 -0 -0 -0 -0 -0 -1 -1 -0 -1 -1 -1 -2 -2 -5 -0 -0 -0 -0 -0 -0 -0 -0 -0 -0 -0 -0 -0 -0 -0 -0 -0 -0 -0 -0 -0 -0 -0 -0 -0 -0 -0 -0 -51 -90
-0 -0 -0 -0 -0 -0 -0 -0 -0 -1 -1 -1 -1 -1 -2 -4 -4 -0 -0 -0 -0 -0 -0 -0 -0 -0 -0 -0 -0 -0 -0 -0 -0 -0 -0 -0 -0 -0 -0 -0 -0 -0 -0 -0 -0 -0 -65
-0 -0 -0 -0 -0 -0 -0 -0 -0 -1 -1 -1 -2 -2 -3 -4 -0 -0 -0 -0 -0 -0 -0 -0 -0 -0 -0 -0 -0 -0 -0 -0 -0 -0 -0 -0 -0 -0 -0 -0 -0 -0 -0 -0 -0 -8 -43
-0 -0 -0 -0 -0 -0 -0 -0 -0 -1 -1 -1 -1 -2 -3 -6 -0 -0 -0 -0 -0 -0 -0 -0 -0 -0 -0 -0 -0 -0 -0 -0 -0 -0 -0 -0 -0 -0 -0 -0 -0 -0 -0 -0 -0 -0 -0
-1 -0 -0 -0 -0 -0 -0 -0 -0 -0 -1 -1 -2 -4 -7 -16 -0 -0 -0 -0 -0 -0 -0 -0 -0 -0 -0 -0 -0 -0 -0 -0 -0 -0 -0 -0 -0 -0 -0 -0 -0 -0 -0 -0 -0 -0 -0
-2 -0 -0 -0 -0 -0 -0 -0 -0 -0 -1 -2 -2 -4 -7 -10 -0 -0 -0 -0 -0 -0 -0 -0 -0 -0 -0 -0 -0 -0 -0 -0 -0 -0 -0 -0 -0 -0 -0 -0 -0 -0 -0 -0 -0 -0 -0
-0 -0 -0 -0 -0 -0 -0 -0 -1 -1 -2 -3 -5 -4 -5 -0 -0 -0 -0 -0 -20 -2 -0 -0 -0 -0 -0 -0 -0 -0 -0 -0 -0 -0 -0 -0 -0 -0 -0 -0 -0 -0 -0 -0 -0 -0 -0
-0 -0 -0 -0 -0 -0 -0 -0 -2 -2 -2 -5 -7 -5 -4 -0 -0 -0 -0 -0 -0 -0 -0 -0 -0 -0 -0 -0 -0 -0 -0 -0 -0 -0 -0 -0 -0 -0 -0 -0 -0 -0 -0 -0 -0 -0 -0
-0 -0 -0 -0 -0 -0 -0 -0 -1 -0 -2 -6 -9 -20 -6 -0 -0 -0 -6 -15 -0 -0 -0 -0 -0 -0 -0 -0 -0 -0 -0 -0 -0 -0 -0 -0 -0 -0 -0 -0 -0 -0 -0 -0 -0 -0 -0
-0 -0 -0 -0 -0 -0 -0 -0 -0 -0 -1 -8 -12 -7 -3 -0 -0 -14 -0 -2 -0 -0 -0 -0 -0 -0 -0 -0 -0 -0 -0 -0 -0 -0 -0 -0 -0 -0 -0 -0 -0 -0 -0 -0 -0 -0 -0
-0 -0 -0 -0 -0 -0 -0 -0 -0 -0 -0 -6 -0 -0 -2 -0 -0 -3 -0 -1 -0 -0 -0 -0 -0 -0 -0 -0 -0 -0 -0 -0 -0 -0 -0 -0 -0 -0 -0 -0 -0 -0 -0 -0 -0 -0 -0
-0 -0 -0 -0 -0 -0 -0 -0 -0 -0 -0 -3 -0 -0 -2 -0 -16 -0 -0 -2 -0 -0 -0 -0 -0 -0 -0 -0 -0 -0 -0 -0 -0 -0 -0 -0 -0 -0 -0 -0 -0 -0 -0 -0 -0 -0 -0
-0 -0 -0 -0 -0 -0 -0 -0 -0 -0 -0 -0 -0 -0 -1 -12 -0 -2 -0 -1 -6 -0 -0 -0 -0 -0 -0 -0 -0 -0 -0 -0 -145 -0 -0 -0 -0 -0 -0 -0 -0 -0 -0 -0 -0 -0 -0
-0 -0 -0 -0 -0 -0 -0 -0 -0 -0 -0 -1 -0 -0 -2 -0 -0 -0 -1 -1 -0 -3 -0 -0 -0 -0 -0 -0 -0 -0 -11 -55 -106 -100 -0 -3 -22 -0 -0 -0 -0 -0 -0 -0 -0 -0 -0
-0 -0 -0 -0 -0 -0 -0 -0 -0 -0 -0 -0 -0 -0 -0 -0 -0 -0 -0 -0 -0 -1 -0 -0 -0 -0 -0 -0 -0 -0 -0 -75 -109 -113 -101 -33 -12 -28 -0 -0 -0 -0 -0 -0 -0 -0 -0
-0 -0 -0 -0 -0 -0 -0 -0 -0 -0 -0 -0 -0 -0 -0 -0 -0 -0 -0 -1 -0 -0 -1 -0 -0 -0 -0 -0 -0 -0 -0 -44 -22 -175 -106 -82 -0 -0 -0 -0 -0 -0 -0 -0 -0 -0 -0
-0 -0 -0 -0 -0 -0 -0 -0 -0 -0 -0 -0 -0 -0 -0 -0 -2 -0 -0 -2 -0 -0 -0 -0 -0 -0 -0 -0 -0 -0 -0 -0 -62 -68 -69 -132 -0 -0 -0 -0 -0 -0 -0 -0 -0 -0 -0
-0 -0 -0 -0 -0 -0 -0 -0 -0 -0 -0 -0 -2 -0 -1 -0 -0 -3 -0 -0 -1 -0 -7 -0 -0 -0 -0 -0 -0 -10 -17 -16 -17 -35 -0 -105 -0 -0 -0 -0 -0 -0 -0 -0 -0 -0 -0
-0 -0 -0 -0 -0 -0 -0 -1 -3 -2 -0 -2 -1 -2 -0 -0 -0 -0 -1 -0 -0 -0 -0 -0 -0 -0 -0 -0 -48 -37 -26 -42 -54 -63 -0 -0 -0 -0 -0 -0 -0 -0 -0 -0 -0 -0 -0
-0 -0 -0 -0 -0 -0 -0 -0 -0 -2 -0 -1 -2 -0 -0 -0 -0 -0 -0 -0 -1 -0 -1 -0 -0 -0 -0 -0 -12 -4 -0 -0 -0 -59 -61 -106 -0 -0 -0 -1 -0 -0 -0 -0 -0 -0 -0
-0 -0 -0 -0 -0 -0 -0 -0 -0 -0 -0 -2 -2 -3 -0 -0 -0 -0 -0 -2 -1 -0 -0 -0 -0 -0 -0 -0 -0 -0 -0 -1 -22 -33 -10 -0 -0 -20 -0 -1 -1 -0 -0 -0 -0 -0 -0
-0 -0 -0 -0 -0 -0 -0 -0 -0 -0 -0 -2 -2 -1 -0 -0 -0 -0 -0 -0 -0 -0 -0 -0 -0 -0 -16 -0 -0 -0 -0 -11 -2 -30 -0 -0 -0 -0 -0 -0 -0 -5 -0 -0 -0 -0 -0
-2 -0 -0 -0 -0 -0 -2 -1 -0 -0 -0 -0 -2 -1 -1 -0 -0 -1 -2 -0 -0 -0 -0 -0 -0 -36 -38 -13 -0 -0 -8 -22 -7 -0 -0 -0 -0 -0 -0 -0 -0 -0 -0 -0 -0 -0 -0
-0 -0 -0 -0 -0 -1 -0 -0 -0 -0 -0 -1 -1 -0 -3 -0 -0 -1 -0 -0 -0 -0 -0 -0 -0 -0 -83 -15 -0 -0 -2 -8 -0 -3 -0 -0 -0 -0 -12 -0 -115 -18 -0 -0 -0 -0 -0
Wind_Speed
11 12 12 12 11 10 10 10 11 12 13 13 13 14 13 12 16 17 17 16 16 15 17 19 18 18 9 3 14 3 6 4 5 6 5 4 1 2 3 4 6 4 8 6 6 6 4
14 13 14 14 14 14 14 12 11 12 13 14 13 14 14 15 14 14 15 14 15 14 14 17 17 15 1 7 6 4 6 5 4 5 5 6 7 4 5 4 2 5 8 7 7 3 8
14 14 14 12 12 12 13 13 13 13 13 13 13 13 13 14 15 15 16 16 16 15 13 16 15 7 8 22 5 3 3 2 3 4 5 6 3 5 2 6 2 7 6 9 7 4 6
15 15 15 12 12 11 12 12 12 14 16 15 13 13 12 14 15 16 17 19 19 18 16 17 11 4 11 9 7 12 7 7 8 9 9 7 4 5 3 1 8 6 5 2 6 3 4
17 17 15 14 13 12 12 12 13 13 13 15 14 12 12 13 14 17 18 21 23 23 14 9 3 4 13 9 5 11 14 7 3 7 7 8 4 4 2 3 5 3 5 5 12 8 6
17 17 16 16 15 15 15 15 14 14 13 13 13 12 11 12 14 17 19 22 26 13 5 6 4 3 8 5 4 5 9 11 6 4 3 6 3 3 3 4 7 5 4 4 7 5 3
19 18 17 18 19 18 17 18 16 14 14 14 13 12 11 10 14 15 10 8 5 1 1 9 8 8 12 4 6 5 4 8 4 4 8 3 4 9 11 10 8 5 7 10 14 11 6
19 18 19 20 20 19 18 18 17 15 14 14 13 11 9 11 14 14 5 2 6 3 12 14 19 24 23 6 10 12 3 7 7 9 6 3 15 10 9 8 8 9 10 17 10 4 6
20 18 18 20 21 20 19 19 17 15 13 13 11 11 8 10 12 7 4 8 7 11 6 9 17 15 14 13 16 19 5 6 6 6 9 12 8 15 10 11 10 13 10 12 10 3 4
19 17 18 20 20 20 20 19 18 16 15 12 11 10 8 9 6 3 4 4 8 4 5 9 8 11 13 12 10 23 11 7 6 15 8 9 11 12 8 11 11 12 13 10 7 3 4
20 17 19 19 20 19 19 17 17 17 16 13 11 10 9 7 4 3 7 15 14 2 6 7 7 5 9 17 9 9 11 7 14 10 9 10 7 13 16 19 11 14 15 10 5 4 2
20 19 21 20 19 19 18 17 16 16 16 15 12 11 10 4 1 6 10 15 3 2 12 7 5 7 10 9 3 4 8 4 3 6 9 9 5 6 8 10 10 10 3 3 3 3 1
19 21 22 21 20 20 19 17 16 15 16 16 14 12 10 4 4 3 8 5 3 9 4 5 2 6 6 8 4 2 7 11 9 7 13 12 20 15 7 7 13 5 5 2 4 2 7
21 22 21 21 20 20 19 19 16 16 16 17 15 13 7 7 4 3 3 3 12 3 12 5 6 9 1 5 6 4 6 5 10 4 4 12 6 17 12 17 7 8 9 7 7 4 6
24 23 21 21 20 21 19 18 18 17 16 16 13 3 4 6 5 3 1 11 7 6 6 7 14 6 4 1 5 9 8 8 8 14 7 7 9 8 15 11 8 7 5 9 5 2 2
26 24 23 23 22 21 19 18 19 18 17 16 4 4 6 6 8 4 5 19 7 7 4 9 3 2 3 5 5 6 2 4 7 10 14 6 6 6 16 5 12 13 6 3 2 6 5
26 25 25 24 24 22 22 19 19 18 17 17 5 4 7 11 6 4 13 13 10 12 9 3 6 5 3 5 6 3 4 7 2 3 17 9 11 8 5 6 15 2 4 2 6 6 7
26 26 26 26 25 25 23 22 20 19 18 12 4 5 7 12 8 7 21 12 4 9 8 12 5 5 9 4 3 3 3 6 4 2 4 5 7 13 23 17 10 7 11 11 7 4 3
27 28 27 27 27 25 25 24 22 21 20 3 4 3 7 12 15 19 14 16 18 3 6 3 7 11 2 4 3 5 6 2 5 4 4 7 5 4 7 9 5 9 6 10 5 5 9
29 28 28 28 27 27 26 25 24 24 23 10 4 6 5 11 6 18 20 21 20 11 22 18 13 8 5 3 6 7 2 3 2 5 8 7 6 5 11 7 5 5 11 11 11 6 5
30 29 29 28 28 27 26 26 26 25 24 11 7 6 6 11 18 14 15 10 24 19 13 10 7 19 9 5 5 8 5 2 2 2 5 5 6 12 17 14 19 19 10 9 14 8 10
31 30 30 29 28 28 27 27 27 27 26 13 6 6 4 1 14 22 20 24 24 18 12 14 15 4 18 20 9 9 7 5 5 2 4 2 1 10 11 13 16 20 20 16 15 10 7
32 31 30 29 28 27 26 26 25 26 26 8 8 3 3 10 12 18 33 32 15 17 11 24 14 15 13 7 9 7 6 6 6 8 3 6 4 5 8 17 13 12 27 18 6 7 6
31 30 29 27 26 25 24 23 22 24 26 8 2 5 5 6 16 28 15 20 22 19 22 12 16 15 10 7 2 1 2 0 2 2 5 7 7 4 8 14 10 19 4 16 16 9 7
31 28 27 25 24 24 24 25 25 26 28 9 6 3 7 10 15 19 23 20 19 19 19 20 21 16 3 4 1 5 3 2 6 6 8 5 5 4 4 7 17 5 12 3 8 15 8
27 25 25 26 26 27 27 27 27 27 28 14 7 9 3 3 19 18 19 16 13 16 15 23 12 11 6 2 3 9 5 3 5 4 7 7 3 5 4 5 8 10 7 12 2 9 10
26 26 27 27 27 28 28 29 30 30 30 14 4 14 5 2 5 11 13 17 12 12 9 5 16 4 6 4 6 6 8 6 6 9 7 3 0 8 4 5 9 11 23 8 11 7 15
28 29 29 27 26 27 29 29 31 32 31 19 9 13 10 3 5 5 11 6 12 15 12 4 4 4 2 7 5 5 4 7 4 8 8 9 9 5 6 5 11 2 12 6 6 4 13
26 24 26 26 27 28 29 30 31 32 33 29 6 12 8 4 2 3 6 9 7 19 13 7 6 7 7 5 4 2 2 1 6 4 4 5 8 7 10 9 4 1 2 6 5 5 4
Wind_Direction
310 315 316 320 320 323 322 321 325 320 312 315 323 314 303 306 314 317 317 317 316 321 327 327 330 334 345 332 253 240 154 156 145 146 195 197 293 151 220 249 323 216 293 290 247 77 103
314 315 314 319 322 321 322 327 318 306 303 303 309 309 313 311 303 306 304 299 304 310 316 319 323 324 275 265 264 255 164 141 242 173 195 170 217 184 269 252 339 284 280 278 282 249 157
307 301 301 303 306 314 309 308 308 306 303 299 298 298 312 314 311 308 303 297 295 297 302 303 308 303 258 250 271 337 331 220 202 209 211 211 213 187 246 323 184 289 321 334 296 278 130
306 304 303 304 299 292 289 298 283 291 301 302 300 300 301 309 309 307 304 299 297 294 297 293 293 274 252 254 250 261 262 260 233 232 232 268 252 251 216 278 352 330 329 325 282 108 125
304 300 298 302 298 293 288 282 281 279 279 287 293 301 304 305 313 313 303 299 295 290 281 271 219 205 262 294 230 239 205 220 210 222 233 261 234 199 13 74 355 333 250 265 301 210 142
298 298 304 306 304 302 299 287 282 279 276 276 284 292 299 307 314 310 314 304 292 296 225 168 223 295 253 263 280 265 173 179 197 201 286 209 82 172 51 106 223 208 235 290 265 228 130
304 305 307 305 303 298 296 294 290 285 279 275 274 283 296 301 307 318 334 339 357 38 298 201 193 253 294 294 301 310 183 144 191 160 184 204 182 204 206 213 235 265 262 264 272 240 150
299 298 298 299 299 295 294 290 287 284 284 279 273 267 281 296 307 314 313 274 267 78 295 256 248 248 259 290 305 296 146 162 157 201 147 213 235 221 202 224 241 256 270 281 282 216 143
293 297 300 301 297 298 295 289 286 283 278 275 273 269 269 288 312 309 225 249 283 324 263 250 228 237 227 201 228 259 213 183 178 171 201 204 218 200 211 240 246 256 250 262 238 256 47
294 295 298 301 297 295 290 286 284 279 272 265 263 261 257 294 316 284 249 322 332 212 292 272 224 242 208 190 232 220 185 172 215 199 198 227 238 244 233 237 229 262 253 251 265 124 228
291 294 296 296 292 289 286 278 275 275 271 261 251 249 231 203 295 315 322 328 320 96 300 245 214 198 178 174 146 204 188 156 206 198 161 227 177 202 230 235 229 249 242 240 226 198 138
290 294 295 291 291 286 282 274 267 266 264 260 245 233 213 258 209 252 293 306 304 93 246 278 213 157 129 218 262 100 153 124 186 209 238 222 262 193 215 236 219 246 188 274 1 98 344
290 290 288 286 288 281 281 274 270 264 259 255 250 231 203 189 217 327 340 318 173 219 294 259 270 162 165 171 256 114 155 178 182 167 224 243 248 259 257 282 268 196 101 275 311 335 224
285 285 284 283 282 278 277 277 270 266 254 245 241 227 216 210 219 28 348 234 218 222 244 9 341 11 360 116 256 220 153 184 217 203 171 213 283 226 225 212 220 210 166 162 209 197 250
287 285 281 279 277 274 271 270 266 259 256 244 233 196 199 213 169 106 256 228 233 149 267 283 302 310 292 253 202 194 217 218 200 194 189 182 240 259 215 220 175 232 170 189 156 351 116
286 283 280 278 274 270 265 269 260 253 248 239 216 188 199 147 135 135 235 233 235 234 321 16 323 293 342 8 52 52 224 260 217 187 202 237 267 236 258 256 242 204 195 128 31 183 235
279 277 275 272 271 269 264 258 256 246 243 234 212 205 173 133 117 185 224 223 227 266 302 266 251 317 339 353 22 30 244 306 342 306 216 198 233 259 312 237 234 227 199 154 144 147 182
275 273 271 269 267 265 260 252 251 242 236 229 221 212 170 142 196 205 227 207 243 279 282 240 324 273 238 297 290 282 248 302 34 15 16 324 224 225 244 249 262 234 221 185 179 208 228
273 271 268 268 265 260 257 248 243 237 224 189 208 161 184 160 209 216 225 233 245 271 248 268 234 233 249 173 237 241 230 156 84 74 72 342 323 263 275 262 239 223 223 217 146 122 193
272 271 268 265 263 259 251 243 237 230 223 208 162 177 176 204 237 212 216 228 226 220 250 258 280 313 319 178 199 255 302 292 358 98 163 122 286 243 252 279 227 230 226 217 192 178 188
271 270 267 265 261 254 249 243 236 226 211 207 175 223 202 200 208 209 201 200 219 221 211 221 258 237 258 285 196 243 217 249 264 52 52 77 279 325 303 280 263 249 240 220 207 198 193
271 268 267 263 258 252 245 240 232 222 213 213 188 188 203 75 184 205 218 220 223 210 216 211 232 244 218 237 239 301 325 292 201 354 123 138 270 349 302 283 262 247 238 251 228 206 215
270 268 265 261 254 248 242 235 229 220 200 205 208 196 216 198 180 191 214 225 216 220 229 234 240 224 248 237 219 235 234 246 220 159 134 146 165 59 281 329 296 264 234 229 242 220 177
271 268 262 255 250 243 237 232 227 215 207 202 158 144 201 209 204 217 204 210 215 217 223 243 225 236 250 250 86 52 46 348 202 286 135 137 101 116 287 317 247 249 246 225 224 228 214
268 264 257 252 244 237 233 227 221 215 208 211 195 200 198 225 224 224 212 206 200 216 229 226 240 250 309 261 135 258 307 319 217 229 169 164 124 177 238 298 286 246 239 198 200 255 243
264 257 253 249 243 237 229 225 219 216 213 209 198 179 257 216 223 223 212 197 194 206 222 238 249 241 267 203 219 212 227 164 176 97 128 93 102 159 155 246 294 322 196 229 57 275 251
258 258 255 252 247 240 230 222 217 213 211 203 194 174 156 227 261 191 198 205 187 182 214 184 214 233 166 207 215 236 237 193 188 155 167 102 299 218 171 219 251 247 300 232 195 262 325
262 257 254 250 246 236 226 220 215 210 206 198 193 181 176 180 267 256 224 160 182 199 200 191 121 211 150 191 187 209 197 217 174 169 167 165 170 213 163 182 249 94 317 46 293 309 322
265 256 251 246 241 233 226 218 211 205 201 192 189 174 186 177 290 327 283 252 218 203 197 186 188 156 181 164 220 145 187 351 148 221 151 203 190 186 192 215 271 197 198 277 229 245 296